[[{"header":{"parameterUnit":"m.s-1","parameterCategory":1,"la1":30.2991,"la2":30.254,"lo1":-89.0895,"lo2":-89.0444,"dy":0.0017,"dx":0.0017,"nx":28,"ny":28,"refTime":"2025-12-12T03:00:00:Z","depth":0,"parameterNumber":2,"parameterNumberName":"U-component_of_WINDS"},"data":[0,0,0,0,0,0,0,0,0,0,0,0,0,0,0,0,0,0,0,0,0,0,0,0,0,0,0,0,0,0,0,0,0,0,0,0,0,0,0,0,0,0,0,0,0,0,0,0,0,0,0,0,0,0,0,0,0,0,-1.4648,-1.4648,0,-1.4688,-1.4689,-1.4689,-1.465,-1.4649,-1.4647,-1.4646,-1.4688,-1.469,-1.4693,0,0,0,0,0,0,0,0,0,0,0,0,0,-1.4537,-1.454,-1.4648,-1.4648,-1.4649,-1.4688,-1.4689,-1.4689,-1.4651,-1.4649,-1.4647,-1.4645,-1.4687,-1.469,-1.4693,0,0,0,0,0,0,0,0,0,0,0,0,0,-1.4582,-1.454,-1.4648,-1.4634,-1.4633,-1.4688,-1.4689,-1.469,-1.4651,-1.4649,-1.4646,-1.4644,-1.4686,-1.469,-1.4694,-1.4764,0,0,-1.4705,-1.4707,0,0,0,0,0,0,0,0,-1.458,-1.4587,-1.4636,-1.4635,-1.4634,-1.4662,-1.4665,-1.4715,-1.4652,-1.4644,-1.4646,-1.4643,-1.4681,-1.4685,-1.4698,-1.4766,-1.4768,-1.4706,-1.4708,-1.471,-1.4711,0,0,0,0,0,0,0,-1.4577,-1.4585,-1.4664,-1.4636,-1.4636,-1.4626,-1.463,-1.4675,-1.4675,-1.4645,-1.4642,-1.4647,-1.468,-1.4694,-1.4699,-1.4768,-1.4706,-1.4709,-1.4711,-1.4713,-1.4898,-1.49,0,0,0,0,0,0,-1.4575,-1.4582,-1.4662,-1.4665,-1.4601,-1.463,-1.4634,-1.4655,-1.4675,-1.4675,-1.4649,-1.4645,-1.4689,-1.4694,-1.47,-1.4785,-1.471,-1.4713,-1.4715,-1.4895,-1.4898,-1.4901,0,0,0,0,0,0,-1.4573,-1.4583,-1.4661,-1.4623,-1.4632,-1.4635,-1.4658,-1.4657,-1.4671,-1.4678,-1.4678,-1.4663,-1.4687,-1.4695,-1.4749,-1.4785,-1.4715,-1.4718,-1.4892,-1.4896,-1.49,-1.4954,0,0,0,0,0,0,-1.457,-1.4582,-1.4608,-1.4624,-1.4634,-1.4708,-1.4661,-1.466,-1.4678,-1.4673,-1.4691,-1.4692,-1.4686,-1.4743,-1.4753,-1.4789,-1.4722,-1.4889,-1.4894,-1.4899,-1.4949,-1.4959,-1.4968,0,0,0,0,0,-1.4566,-1.4622,-1.461,-1.462,-1.4667,-1.4711,-1.4717,-1.4708,-1.4681,-1.4708,-1.4713,-1.4692,-1.478,-1.4749,-1.4759,-1.4798,-1.4886,-1.4892,-1.4898,-1.4944,-1.4957,-1.4968,0,0,0,0,0,0,-1.461,-1.4623,-1.461,-1.4673,-1.4691,-1.4704,-1.4737,-1.4722,-1.4748,-1.4743,-1.4731,-1.4736,-1.4793,-1.4801,-1.4766,-1.4868,-1.4829,-1.4837,-1.4861,-1.4873,-1.4882,-1.4879,-1.4725,0,0,0,0,0,-1.4627,-1.4661,-1.4671,-1.4725,-1.4735,-1.4735,-1.4753,-1.4746,-1.4764,-1.4771,-1.478,-1.4799,-1.4831,-1.4852,-1.4882,-1.495,-1.4954,-1.4982,-1.4991,-1.4999,-1.5006,-1.5044,-1.5057,-1.492,-1.492,-1.492,0,0,-1.4663,-1.4674,-1.4696,-1.4734,-1.4747,-1.4783,-1.4741,-1.4781,-1.4807,-1.4777,-1.4829,-1.4836,-1.4857,-1.4918,-1.4946,-1.4926,-1.5045,-1.5006,-1.5013,-1.5016,-1.5051,-1.5064,-1.5075,-1.4924,-1.4924,-1.4923,0,0,-1.4745,-1.4757,-1.4804,-1.4819,-1.4839,-1.4839,-1.4851,-1.4866,-1.487,-1.4922,-1.49,-1.4932,-1.4987,-1.5003,-1.5019,-1.511,-1.5091,-1.512,-1.5169,-1.5206,-1.5217,-1.5226,-1.526,-1.5271,-1.5127,-1.5127,-1.5127,0,-1.4787,-1.4839,-1.483,-1.4872,-1.4889,-1.4864,-1.4912,-1.4927,-1.4956,-1.4969,-1.4947,-1.5017,-1.5029,-1.5094,-1.5117,-1.513,-1.5143,-1.5117,-1.5216,-1.5226,-1.5234,-1.5266,-1.5278,-1.513,-1.513,-1.5129,-1.5129,0,-1.489,-1.4927,-1.4962,-1.4992,-1.5014,-1.5058,-1.5056,-1.5079,-1.507,-1.5073,-1.5127,-1.514,-1.5173,-1.5188,-1.5179,-1.5253,-1.524,-1.5218,-1.5178,-1.5251,-1.528,-1.5292,-1.5135,-1.5134,-1.5133,-1.5132,0,0,-1.5,-1.5025,-1.5038,-1.5052,-1.5074,-1.5103,-1.5147,-1.5179,-1.5199,-1.5221,-1.5258,-1.5306,-1.5286,-1.5303,-1.5296,-1.5328,-1.5401,-1.5302,-1.5302,-1.532,-1.5484,-1.5501,-1.5515,-1.5389,-1.5391,-1.5393,-1.5482,0,-1.5084,-1.516,-1.5153,-1.5226,-1.526,-1.5238,-1.5277,-1.5295,-1.5299,-1.5329,-1.5333,-1.5368,-1.5338,-1.5348,-1.5379,-1.5385,-1.5433,-1.5379,-1.5424,-1.5425,-1.5419,-1.553,-1.5548,-1.5631,-1.5493,-1.5495,-1.5497,0,-1.5191,-1.5217,-1.5293,-1.5311,-1.5326,-1.536,-1.539,-1.5419,-1.544,-1.544,-1.5461,-1.5449,-1.5494,-1.5454,-1.5516,-1.5479,-1.5498,-1.5503,-1.5506,-1.551,-1.5465,-1.5537,-1.5657,-1.567,-1.5515,-1.5513,-1.5512,0,-1.5265,-1.5319,-1.5372,-1.5384,-1.5406,-1.5431,-1.5442,-1.546,-1.548,-1.5506,-1.552,-1.5551,-1.5568,-1.5593,-1.559,-1.5561,-1.5654,-1.5613,-1.5656,-1.5656,-1.5676,-1.5675,-1.5801,-1.5688,-1.5688,-1.5687,-1.5687,0,-1.5359,-1.5406,-1.5405,-1.5437,-1.549,-1.5483,-1.5536,-1.5543,-1.556,-1.5594,-1.5577,-1.5609,-1.5603,-1.5636,-1.5634,-1.5686,-1.5694,-1.5696,-1.5695,-1.5698,-1.5698,-1.5709,-1.5704,-1.5691,-1.569,-1.5689,-1.5689,0,-1.545,-1.5451,-1.5507,-1.5524,-1.5529,-1.5567,-1.5582,-1.5613,-1.5616,-1.5659,-1.5669,-1.5674,-1.5712,-1.5711,-1.5754,-1.5753,-1.5817,-1.581,-1.5811,-1.5809,-1.5852,-1.5848,-1.599,-1.6009,-1.5884,-1.5885,-1.5886,0,-1.551,-1.5546,-1.5567,-1.5589,-1.5601,-1.5636,-1.5657,-1.5652,-1.5674,-1.5701,-1.5729,-1.5765,-1.5794,-1.5855,-1.5863,-1.5896,-1.5889,-1.5936,-1.5893,-1.5895,-1.589,-1.5888,-1.5892,-1.5945,-1.5946,-1.5947,-1.5948,0,-1.5616,-1.5615,-1.5646,-1.5678,-1.5704,-1.5728,-1.5751,-1.577,-1.5767,-1.5793,-1.5832,-1.5854,-1.5898,-1.5935,-1.5967,-1.5978,-1.5963,-1.5962,-1.5973,-1.5976,-1.5975,-1.5977,-1.5834,-1.5958,-1.5957,-1.5956,-1.5956,-1.5955,-1.5693,-1.5725,-1.5745,-1.5781,-1.5797,-1.5819,-1.585,-1.5857,-1.5889,-1.5925,-1.592,-1.5963,-1.5984,-1.6026,-1.604,-1.6074,-1.6057,-1.6074,-1.6078,-1.6083,-1.6088,-1.597,-1.608,-1.6079,-1.6079,-1.6079,-1.6079,0,-1.5799,-1.5812,-1.5844,-1.5877,-1.5905,-1.5889,-1.5914,-1.5939,-1.5977,-1.5998,-1.6027,-1.6071,-1.6107,-1.6118,-1.6153,-1.6178,-1.6172,-1.6187,-1.6185,-1.6188,-1.61,-1.6087,-1.6191,-1.6191,-1.6191,-1.6191,-1.6191,-1.6191,-1.5858,-1.591,-1.5912,-1.5974,-1.5986,-1.6028,-1.6044,-1.6064,-1.6081,-1.6132,-1.6162,-1.6169,-1.6186,-1.6222,-1.6254,-1.6257,-1.627,-1.6288,-1.6288,-1.6206,-1.6194,-1.6183,-1.6171,-1.6291,-1.6292,-1.6373,-1.6374,-1.6375]},{"header":{"parameterUnit":"m.s-1","parameterCategory":1,"la1":30.2991,"la2":30.254,"lo1":-89.0895,"lo2":-89.0444,"dy":0.0017,"dx":0.0017,"nx":28,"ny":28,"refTime":"2025-12-12T03:00:00:Z","depth":0,"parameterNumber":3,"parameterNumberName":"V-component_of_WINDS"},"data":[0,0,0,0,0,0,0,0,0,0,0,0,0,0,0,0,0,0,0,0,0,0,0,0,0,0,0,0,0,0,0,0,0,0,0,0,0,0,0,0,0,0,0,0,0,0,0,0,0,0,0,0,0,0,0,0,0,0,0.8661,0.8661,0,0.8694,0.8694,0.8694,0.879,0.8792,0.8795,0.8797,0.8823,0.8821,0.882,0,0,0,0,0,0,0,0,0,0,0,0,0,0.8675,0.8674,0.8661,0.8661,0.8661,0.8694,0.8694,0.8694,0.879,0.8793,0.8795,0.8798,0.8823,0.8821,0.882,0,0,0,0,0,0,0,0,0,0,0,0,0,0.8684,0.8674,0.8661,0.8713,0.8718,0.8693,0.8694,0.8694,0.8789,0.8793,0.8796,0.8799,0.8823,0.8822,0.882,0.8744,0,0,0.8814,0.8813,0,0,0,0,0,0,0,0,0.8683,0.8683,0.8705,0.871,0.8715,0.8741,0.8709,0.8711,0.8789,0.8762,0.8797,0.88,0.8792,0.8793,0.8792,0.8745,0.8747,0.8814,0.8813,0.8812,0.8811,0,0,0,0,0,0,0,0.8682,0.8682,0.8673,0.8705,0.8711,0.8733,0.8738,0.8709,0.8759,0.8765,0.8772,0.8775,0.8796,0.8794,0.8794,0.8747,0.8814,0.8812,0.8811,0.881,0.8641,0.8638,0,0,0,0,0,0,0.8675,0.8681,0.8672,0.8674,0.8707,0.873,0.8736,0.873,0.8759,0.8767,0.8772,0.8779,0.8796,0.8796,0.8795,0.8709,0.8812,0.881,0.8809,0.8644,0.864,0.8637,0,0,0,0,0,0,0.8675,0.8674,0.8671,0.868,0.8681,0.8727,0.8719,0.8728,0.8727,0.8765,0.8774,0.8761,0.8798,0.8797,0.8757,0.8712,0.8809,0.8807,0.8648,0.8643,0.8638,0.8537,0,0,0,0,0,0,0.8675,0.8673,0.8646,0.8679,0.868,0.8634,0.8716,0.8727,0.8724,0.8734,0.8757,0.8764,0.8801,0.8759,0.8755,0.8711,0.8806,0.8652,0.8646,0.864,0.8545,0.8529,0.8516,0,0,0,0,0,0.8675,0.8614,0.8644,0.8643,0.8648,0.8631,0.8632,0.8677,0.872,0.8693,0.8718,0.8764,0.8717,0.8754,0.875,0.8705,0.8655,0.8648,0.864,0.8551,0.8532,0.8516,0,0,0,0,0,0,0.8572,0.8619,0.8653,0.8601,0.8612,0.8648,0.8614,0.8656,0.8652,0.8661,0.8715,0.872,0.8671,0.8684,0.8724,0.8634,0.8694,0.8685,0.8627,0.861,0.8596,0.8593,0.8804,0,0,0,0,0,0.8544,0.8528,0.857,0.8519,0.8524,0.8568,0.8562,0.8596,0.8609,0.8613,0.8635,0.8643,0.8631,0.8621,0.8611,0.8547,0.8553,0.8514,0.8499,0.8487,0.8479,0.8447,0.843,0.8612,0.8612,0.8612,0,0,0.8484,0.8508,0.8494,0.8499,0.8512,0.8493,0.8571,0.8547,0.8533,0.8608,0.8573,0.8589,0.8601,0.8549,0.8527,0.8558,0.843,0.8478,0.8468,0.8466,0.8437,0.842,0.8405,0.8607,0.8608,0.8609,0,0,0.8366,0.8382,0.8343,0.8355,0.8374,0.8404,0.8394,0.8425,0.8439,0.8405,0.8461,0.8444,0.8421,0.8429,0.8429,0.8316,0.8358,0.8311,0.8235,0.8203,0.8189,0.8177,0.8136,0.8121,0.8302,0.8302,0.8302,0,0.8288,0.8265,0.8317,0.8291,0.8292,0.8362,0.8322,0.833,0.8343,0.8341,0.8376,0.8351,0.8364,0.8315,0.8287,0.8285,0.8275,0.8308,0.8187,0.8175,0.8164,0.8127,0.8111,0.8296,0.8297,0.8297,0.8298,0,0.8169,0.8151,0.8117,0.8132,0.8129,0.8095,0.8141,0.8131,0.8166,0.8192,0.8155,0.8174,0.8171,0.8162,0.8194,0.8117,0.8136,0.8178,0.824,0.814,0.8106,0.8092,0.8288,0.829,0.8292,0.8293,0,0,0.7985,0.8031,0.8018,0.8026,0.8053,0.8039,0.8009,0.8008,0.7999,0.8006,0.7981,0.7961,0.8002,0.8002,0.8036,0.8008,0.7917,0.8054,0.8055,0.8028,0.7834,0.7802,0.7785,0.7946,0.7943,0.7941,0.7833,0,0.7873,0.7827,0.7874,0.7817,0.7802,0.7869,0.7843,0.7855,0.7879,0.7868,0.7893,0.7879,0.7933,0.7934,0.7909,0.7934,0.7879,0.7942,0.7922,0.7921,0.7917,0.7767,0.7732,0.7629,0.782,0.7818,0.7816,0,0.7737,0.7742,0.7684,0.7716,0.7712,0.7687,0.7691,0.768,0.7695,0.7715,0.7716,0.7759,0.773,0.7791,0.7751,0.7793,0.7788,0.7799,0.7796,0.7795,0.7862,0.7762,0.7597,0.7582,0.7795,0.7797,0.7798,0,0.7609,0.76,0.7566,0.757,0.7607,0.7588,0.7602,0.7621,0.7618,0.7621,0.7619,0.7617,0.7615,0.7612,0.7652,0.7693,0.7608,0.7672,0.7622,0.7621,0.76,0.7601,0.7433,0.7596,0.7597,0.7597,0.7597,0,0.748,0.7442,0.7509,0.7487,0.7447,0.7501,0.7458,0.7479,0.7496,0.7478,0.7535,0.7516,0.7571,0.7558,0.7589,0.7552,0.755,0.7564,0.7573,0.7559,0.7557,0.7556,0.7564,0.7593,0.7594,0.7595,0.7595,0,0.733,0.7374,0.734,0.7378,0.7387,0.7355,0.7388,0.7368,0.7397,0.7374,0.7371,0.7414,0.7402,0.7443,0.7436,0.7457,0.7403,0.7423,0.7398,0.7404,0.7353,0.7357,0.7177,0.7157,0.7333,0.7332,0.733,0,0.7245,0.7218,0.7254,0.7248,0.726,0.7249,0.7247,0.7299,0.7294,0.7311,0.7289,0.7283,0.728,0.7257,0.7287,0.7282,0.7303,0.7241,0.7302,0.729,0.7302,0.7304,0.7301,0.7227,0.7225,0.7223,0.7222,0,0.7089,0.7112,0.7109,0.7113,0.711,0.7115,0.7124,0.7115,0.7171,0.7163,0.7153,0.7151,0.7146,0.7138,0.7141,0.7153,0.7196,0.7202,0.7191,0.7176,0.7164,0.717,0.7363,0.7206,0.7208,0.7209,0.721,0.721,0.6969,0.6949,0.6972,0.6966,0.6979,0.6987,0.6971,0.6999,0.6992,0.6995,0.7025,0.7009,0.7026,0.7034,0.7042,0.7029,0.7058,0.7041,0.7036,0.7031,0.7023,0.7166,0.703,0.703,0.7031,0.7031,0.7031,0,0.6816,0.6835,0.683,0.6842,0.6838,0.6882,0.6894,0.6887,0.6873,0.6887,0.6884,0.6873,0.6866,0.6896,0.6893,0.6877,0.6897,0.6874,0.6876,0.6878,0.6997,0.7008,0.6859,0.6859,0.6859,0.6859,0.6859,0.6859,0.6736,0.6705,0.6731,0.6706,0.6725,0.6712,0.6716,0.6722,0.6734,0.672,0.6716,0.6736,0.6756,0.6756,0.6751,0.676,0.6756,0.6727,0.6743,0.6853,0.687,0.6886,0.6896,0.6726,0.6726,0.6625,0.6624,0.6623]}]]